Cotulla, TX

6:57 AM CST on November 15, 2019 (GMT -0600)
Cotulla-La Salle County

Weather History for KCOT - August, 2019

Change the Weather History Date:

Saturday, August 10, 2019

  Actual Average Record
Temperature  
Mean Temperature 92 °F -  
Max Temperature 108 °F 97 °F 108 °F (2019)
Min Temperature 79 °F 73 °F 73 °F (2003)
Cooling Degree Days 28    
Growing Degree Days 42 (Base 50)    
Moisture  
Dew Point 69 °F    
Average Humidity 54    
Maximum Humidity 85    
Minimum Humidity 20    
Precipitation  
Precipitation 0.00 in - - ()
Sea Level Pressure  
Sea Level Pressure 29.86 in    
Wind  
Wind Speed 14 mph (SE)    
Max Wind Speed 22 mph    
Max Gust Speed 28 mph    
Visibility 10 miles    
Events      
Averages and records for this station are not official NWS values.
T = Trace of Precipitation, MM = Missing Value Source: NWS Daily Summary

Daily Weather History Graph

Daily Weather History Graph

Search for Another Location

Airport or City:

Astronomy

Aug. 10, 2019 Rise Set
Actual Time 7:03 AM CDT 8:20 PM CDT
Civil Twilight 6:38 AM CDT 8:45 PM CDT
Nautical Twilight 6:08 AM CDT 9:15 PM CDT
Astronomical Twilight 5:38 AM CDT 9:45 PM CDT
Moon 4:55 PM CDT (8/10) 2:48 AM CDT (8/10)
Length of Visible Light 14h 06m
Length of Day
13h 16m
Waxing Gibbous, 79% of the Moon is Illuminated
Aug 10
Waxing Gibbous
Aug 15
Full
Aug 23
Last Quarter
Aug 30
New
Sep 5
First Quarter

Hourly Weather History & Observations

Time (CDT) Temp. Heat Index Dew Point Humidity Pressure Visibility Wind Dir Wind Speed Gust Speed Precip Events Conditions
12:53 AM 82.9 °F 90.8 °F 75.9 °F 79% 29.87 in 10.0 mi SE 18.4 mph - N/A   Clear
1:53 AM 82.0 °F 89.4 °F 75.9 °F 82% 29.86 in 10.0 mi SE 15.0 mph - N/A   Clear
2:53 AM 81.0 °F 87.3 °F 75.9 °F 85% 29.86 in 10.0 mi SE 12.7 mph - N/A   Scattered Clouds
3:53 AM 80.1 °F 85.1 °F 75.0 °F 85% 29.86 in 10.0 mi SE 13.8 mph - N/A   Scattered Clouds
4:53 AM 80.1 °F 85.1 °F 75.0 °F 85% 29.86 in 10.0 mi SE 10.4 mph - N/A   Partly Cloudy
5:53 AM 79.0 °F - 73.9 °F 84% 29.87 in 10.0 mi ESE 9.2 mph - N/A   Clear
6:53 AM 79.0 °F - 73.9 °F 84% 29.88 in 10.0 mi ESE 8.1 mph - N/A   Clear
7:53 AM 80.1 °F 85.1 °F 75.0 °F 85% 29.90 in 8.0 mi ESE 11.5 mph - N/A   Clear
8:53 AM 84.0 °F 91.9 °F 75.0 °F 74% 29.92 in 10.0 mi SE 13.8 mph - N/A   Clear
9:53 AM 87.1 °F 95.4 °F 73.9 °F 65% 29.93 in 10.0 mi SSE 12.7 mph 19.6 mph N/A   Clear
10:53 AM 91.9 °F 99.5 °F 72.0 °F 52% 29.93 in 10.0 mi South 15.0 mph 19.6 mph N/A   Clear
11:53 AM 96.1 °F 101.6 °F 69.1 °F 41% 29.92 in 10.0 mi South 10.4 mph - N/A   Clear
12:53 PM 98.1 °F 102.4 °F 66.9 °F 36% 29.89 in 10.0 mi South 12.7 mph 20.7 mph N/A   Clear
1:53 PM 100.9 °F 105.3 °F 66.0 °F 32% 29.86 in 10.0 mi SSE 11.5 mph 20.7 mph N/A   Clear
2:53 PM 104.0 °F 105.3 °F 60.1 °F 24% 29.84 in 10.0 mi SE 16.1 mph 20.7 mph N/A   Partly Cloudy
3:53 PM 106.0 °F 106.4 °F 57.9 °F 21% 29.81 in 10.0 mi South 13.8 mph 25.3 mph N/A   Clear
4:53 PM 106.0 °F 105.8 °F 57.0 °F 20% 29.79 in 10.0 mi South 11.5 mph 20.7 mph N/A   Partly Cloudy
5:53 PM 106.0 °F 106.4 °F 59.0 °F 21% 29.78 in 10.0 mi South 16.1 mph 20.7 mph N/A   Clear
6:53 PM 104.0 °F 105.3 °F 60.1 °F 24% 29.77 in 10.0 mi SSE 12.7 mph - N/A   Partly Cloudy
7:53 PM 100.9 °F 101.0 °F 59.0 °F 25% 29.78 in 10.0 mi SE 12.7 mph - N/A   Clear
8:53 PM 96.1 °F 101.6 °F 69.1 °F 41% 29.81 in 10.0 mi SE 21.9 mph 27.6 mph N/A   Clear
9:53 PM 91.9 °F 97.4 °F 70.0 °F 48% 29.86 in 10.0 mi SE 19.6 mph 26.5 mph N/A   Clear
10:53 PM 89.1 °F 95.0 °F 71.1 °F 55% 29.89 in 10.0 mi SE 16.1 mph - N/A   Clear
11:53 PM 87.1 °F 92.0 °F 70.0 °F 57% 29.91 in 10.0 mi SE 16.1 mph - N/A   Clear